[[{"header":{"parameterUnit":"m.s-1","parameterCategory":2,"la1":30.2991,"la2":30.254,"lo1":-89.0895,"lo2":-89.0444,"dy":0.0017,"dx":0.0017,"nx":28,"ny":28,"refTime":"2025-07-13T03:00:00:Z","depth":"0","parameterNumber":2,"parameterNumberName":"U-component_of_CURRENTS"},"data":[0,0,0,0,0,0,0,0,0,0,0,0,0,0,0,0,0,0,0,0,0,0,0,0,0,0,0,0,0,0,0,0,0,0,0,0,0,0,0,0,0,0,0,0,0,0,0,0,0,0,0,0,0,0,0,0,0,0,0.066,0.0662,0,0.0798,0.0799,0.0801,0.0805,0.0803,0.0802,0.08,0.0934,0.0939,0.0943,0,0,0,0,0,0,0,0,0,0,0,0,0,0.0467,0.047,0.066,0.0662,0.0664,0.0798,0.0799,0.0801,0.0805,0.0803,0.0801,0.08,0.0932,0.0938,0.0944,0,0,0,0,0,0,0,0,0,0,0,0,0,0.0571,0.0471,0.066,0.0683,0.0687,0.0797,0.0799,0.0802,0.0806,0.0803,0.0801,0.0799,0.093,0.0937,0.0945,0.1037,0,0,0.0968,0.0971,0,0,0,0,0,0,0,0,0.0565,0.0578,0.0678,0.0682,0.0686,0.0783,0.078,0.0881,0.0806,0.0759,0.08,0.0798,0.0886,0.0897,0.0925,0.1043,0.1049,0.0968,0.0973,0.0976,0.0978,0,0,0,0,0,0,0,0.0558,0.0572,0.0713,0.068,0.0685,0.071,0.0721,0.08,0.0832,0.0763,0.0764,0.0782,0.0887,0.0918,0.0929,0.1051,0.0968,0.0975,0.0979,0.0982,0.138,0.1386,0,0,0,0,0,0,0.0544,0.0566,0.0709,0.0717,0.0621,0.0715,0.0728,0.0753,0.0832,0.0842,0.0784,0.0782,0.0907,0.092,0.0933,0.114,0.0976,0.0983,0.0987,0.1374,0.1381,0.1388,0,0,0,0,0,0,0.0539,0.0556,0.0703,0.0645,0.0666,0.072,0.0749,0.0757,0.0787,0.0848,0.0857,0.0805,0.0905,0.0923,0.1048,0.1141,0.0986,0.0993,0.1367,0.1376,0.1385,0.1493,0,0,0,0,0,0,0.0533,0.0553,0.0579,0.0645,0.0669,0.078,0.0752,0.0762,0.0802,0.0801,0.087,0.0879,0.0905,0.1037,0.1055,0.1148,0.0999,0.1359,0.1371,0.1382,0.1481,0.1504,0.1524,0,0,0,0,0,0.0526,0.0581,0.0579,0.0597,0.0698,0.0782,0.0798,0.0827,0.0805,0.0839,0.0907,0.0877,0.1122,0.1048,0.1068,0.1165,0.1354,0.1368,0.1381,0.1472,0.15,0.1524,0,0,0,0,0,0,0.0521,0.0589,0.0588,0.0662,0.0716,0.0784,0.0828,0.0835,0.0913,0.0916,0.0949,0.0968,0.1122,0.1138,0.1055,0.1322,0.1237,0.1255,0.13,0.1326,0.1347,0.1372,0.1005,0,0,0,0,0,0.0528,0.058,0.0641,0.07,0.0727,0.0773,0.0812,0.0833,0.0904,0.0932,0.0989,0.1077,0.1201,0.125,0.135,0.1482,0.1544,0.1565,0.1587,0.1604,0.1645,0.1824,0.1865,0.1433,0.1433,0.1433,0,0,0.0549,0.0588,0.0622,0.0701,0.0743,0.0822,0.0791,0.0862,0.0944,0.0941,0.1078,0.1155,0.1257,0.1423,0.1492,0.1439,0.1765,0.1622,0.1635,0.1668,0.1843,0.1885,0.1922,0.1442,0.1441,0.1439,0,0,0.0619,0.0642,0.0711,0.0758,0.0827,0.0866,0.0884,0.0963,0.1012,0.1146,0.1195,0.1345,0.1472,0.1605,0.1678,0.1885,0.1878,0.1892,0.201,0.2183,0.2219,0.2251,0.2388,0.2432,0.1891,0.1892,0.1892,0,0.0639,0.0738,0.0746,0.082,0.087,0.0885,0.0971,0.1044,0.1161,0.1236,0.1202,0.1509,0.1585,0.1841,0.1919,0.1937,0.2001,0.1888,0.2207,0.2241,0.2272,0.2404,0.2451,0.1899,0.1898,0.1897,0.1896,0,0.076,0.0841,0.0888,0.0982,0.1022,0.1113,0.1181,0.1257,0.13,0.1385,0.1617,0.1753,0.1935,0.1991,0.2018,0.2298,0.2261,0.2213,0.2126,0.2322,0.2449,0.2496,0.1908,0.1906,0.1904,0.1902,0,0,0.0835,0.0955,0.0977,0.1051,0.112,0.1188,0.1296,0.1442,0.1562,0.1684,0.1874,0.2116,0.2175,0.227,0.2342,0.2494,0.278,0.2443,0.2449,0.2552,0.3139,0.3021,0.306,0.2758,0.2767,0.2774,0.3137,0,0.0949,0.1122,0.1127,0.1297,0.1403,0.1408,0.1507,0.1619,0.1732,0.1922,0.2088,0.2305,0.2285,0.2399,0.2559,0.2732,0.2907,0.2685,0.296,0.297,0.2818,0.3113,0.3077,0.3389,0.3183,0.3191,0.3196,0,0.1102,0.1194,0.1377,0.1488,0.1523,0.1601,0.1757,0.1851,0.2062,0.2153,0.2361,0.2476,0.2778,0.2704,0.3106,0.2948,0.308,0.3182,0.3196,0.3086,0.2941,0.3166,0.3481,0.3347,0.3268,0.3262,0.3257,0,0.1245,0.1383,0.1541,0.1588,0.1702,0.1763,0.1799,0.1946,0.2075,0.2332,0.2472,0.2759,0.2958,0.3162,0.3344,0.3258,0.373,0.3635,0.3666,0.3656,0.3687,0.3664,0.3888,0.3955,0.3954,0.3953,0.3952,0,0.144,0.1573,0.1626,0.1746,0.1894,0.1874,0.2066,0.2138,0.2301,0.2476,0.2623,0.2831,0.3081,0.3331,0.3458,0.3712,0.3837,0.3781,0.3785,0.3721,0.3698,0.3621,0.3591,0.3967,0.3964,0.3961,0.3959,0,0.1673,0.1706,0.19,0.1989,0.2008,0.2119,0.2202,0.2315,0.244,0.2675,0.2765,0.3006,0.3281,0.3496,0.3848,0.3881,0.4039,0.4155,0.4032,0.4014,0.3844,0.3822,0.3933,0.388,0.4295,0.4295,0.4295,0,0.1859,0.1977,0.2097,0.2143,0.2202,0.2313,0.2349,0.2422,0.2517,0.2757,0.2867,0.3181,0.3346,0.379,0.396,0.4212,0.4091,0.4286,0.413,0.3916,0.3899,0.3655,0.3586,0.4242,0.4242,0.4241,0.4241,0,0.2174,0.2186,0.2291,0.2358,0.2413,0.2486,0.2529,0.2623,0.2672,0.2823,0.2957,0.3095,0.349,0.3698,0.4002,0.4153,0.4101,0.4276,0.4159,0.3997,0.3664,0.3582,0.387,0.4237,0.4238,0.4238,0.4238,0.4238,0.2363,0.244,0.2468,0.2528,0.2553,0.2536,0.2555,0.2576,0.2658,0.2742,0.2916,0.3042,0.3436,0.3839,0.3937,0.4102,0.4056,0.4082,0.4121,0.392,0.3735,0.3964,0.4223,0.4224,0.4224,0.4224,0.4224,0,0.2484,0.2488,0.2581,0.2569,0.2532,0.2543,0.2554,0.2512,0.2494,0.2636,0.2714,0.3029,0.334,0.3646,0.4012,0.3966,0.3809,0.3926,0.3652,0.3631,0.3984,0.3835,0.3894,0.3894,0.3894,0.3894,0.3894,0.3895,0.252,0.2561,0.2557,0.2487,0.2453,0.2356,0.232,0.2285,0.234,0.2401,0.2516,0.2687,0.3151,0.3716,0.3895,0.3859,0.3619,0.3505,0.3452,0.375,0.3764,0.3779,0.3626,0.364,0.364,0.2951,0.2947,0.2944]},{"header":{"parameterUnit":"m.s-1","parameterCategory":2,"la1":30.2991,"la2":30.254,"lo1":-89.0895,"lo2":-89.0444,"dy":0.0017,"dx":0.0017,"nx":28,"ny":28,"refTime":"2025-07-13T03:00:00:Z","depth":"0","parameterNumber":3,"parameterNumberName":"V-component_of_CURRENTS"},"data":[0,0,0,0,0,0,0,0,0,0,0,0,0,0,0,0,0,0,0,0,0,0,0,0,0,0,0,0,0,0,0,0,0,0,0,0,0,0,0,0,0,0,0,0,0,0,0,0,0,0,0,0,0,0,0,0,0,0,0.0274,0.0274,0,0.0325,0.0326,0.0327,0.0354,0.0353,0.0353,0.0353,0.0429,0.0432,0.0434,0,0,0,0,0,0,0,0,0,0,0,0,0,0.0283,0.0283,0.0274,0.0274,0.0275,0.0325,0.0326,0.0327,0.0354,0.0353,0.0353,0.0353,0.0429,0.0431,0.0434,0,0,0,0,0,0,0,0,0,0,0,0,0,0.0305,0.0283,0.0274,0.0291,0.0293,0.0324,0.0326,0.0327,0.0354,0.0353,0.0353,0.0352,0.0428,0.0431,0.0434,0.0466,0,0,0.0445,0.0447,0,0,0,0,0,0,0,0,0.0303,0.0305,0.0288,0.029,0.0292,0.0329,0.0357,0.0373,0.0354,0.0335,0.0353,0.0352,0.0396,0.0402,0.0418,0.0469,0.0473,0.0445,0.0448,0.0449,0.045,0,0,0,0,0,0,0,0.0302,0.0303,0.0298,0.0289,0.0291,0.0324,0.0326,0.0361,0.0371,0.0337,0.0338,0.0337,0.0397,0.0414,0.042,0.0474,0.0445,0.0448,0.0451,0.0452,0.0668,0.0672,0,0,0,0,0,0,0.0283,0.0301,0.0297,0.0299,0.0292,0.0324,0.0327,0.0321,0.037,0.0376,0.0337,0.0338,0.0409,0.0416,0.0423,0.0586,0.0449,0.0452,0.0454,0.0665,0.0669,0.0673,0,0,0,0,0,0,0.0283,0.0282,0.0295,0.0299,0.0302,0.0323,0.0317,0.0322,0.0338,0.037,0.0377,0.0347,0.0409,0.0418,0.048,0.0584,0.0454,0.0457,0.0661,0.0666,0.0671,0.0834,0,0,0,0,0,0,0.0283,0.0282,0.0269,0.0297,0.0301,0.0311,0.0317,0.0323,0.0336,0.0338,0.0381,0.0387,0.0409,0.0474,0.0483,0.0587,0.046,0.0656,0.0663,0.0669,0.0824,0.0844,0.0861,0,0,0,0,0,0.0284,0.0272,0.0268,0.0267,0.0283,0.0311,0.0317,0.0333,0.0337,0.0346,0.0395,0.0386,0.0525,0.0479,0.0489,0.0596,0.0653,0.0661,0.0669,0.0815,0.084,0.0861,0,0,0,0,0,0,0.0247,0.0274,0.027,0.0259,0.0279,0.0314,0.0318,0.0333,0.0378,0.0384,0.0417,0.0428,0.0539,0.0527,0.0476,0.0678,0.0594,0.0604,0.0702,0.0725,0.0744,0.0794,0.0463,0,0,0,0,0,0.0235,0.0245,0.0266,0.0253,0.0263,0.0291,0.0302,0.032,0.0361,0.0378,0.0424,0.0485,0.0581,0.0613,0.0676,0.076,0.072,0.0839,0.0858,0.0874,0.0922,0.0915,0.0937,0.07,0.07,0.07,0,0,0.0214,0.0228,0.023,0.0248,0.0264,0.0329,0.0298,0.0319,0.0419,0.0381,0.0518,0.0549,0.0618,0.0746,0.0793,0.0745,0.0917,0.0884,0.0898,0.0938,0.0926,0.0948,0.0969,0.0706,0.0705,0.0704,0,0,0.021,0.0192,0.022,0.025,0.028,0.0327,0.0335,0.0387,0.0451,0.056,0.0599,0.0696,0.0788,0.0897,0.0958,0.1111,0.1022,0.1107,0.1243,0.1236,0.1255,0.1271,0.1229,0.124,0.111,0.1111,0.1111,0,0.0187,0.0247,0.0227,0.0277,0.0321,0.0339,0.0408,0.0495,0.0575,0.0664,0.0622,0.0854,0.0898,0.1118,0.1184,0.1167,0.1098,0.1152,0.1259,0.1275,0.1289,0.1241,0.1252,0.1119,0.1118,0.1117,0.1117,0,0.0226,0.0294,0.0312,0.041,0.0427,0.05,0.059,0.0681,0.0754,0.085,0.1046,0.1108,0.1247,0.1284,0.1291,0.145,0.1346,0.1284,0.1197,0.1322,0.1264,0.1272,0.1132,0.1129,0.1126,0.1124,0,0,0.0203,0.0329,0.0351,0.0446,0.0524,0.0568,0.0728,0.091,0.1073,0.1161,0.1363,0.154,0.1544,0.1615,0.1626,0.1636,0.1681,0.1498,0.1493,0.145,0.1606,0.1573,0.1576,0.1589,0.1592,0.1594,0.1515,0,0.0289,0.0458,0.0457,0.0641,0.077,0.0806,0.095,0.1091,0.1244,0.1446,0.1562,0.1741,0.1683,0.1744,0.1761,0.1729,0.1711,0.1706,0.1499,0.1495,0.1445,0.1591,0.156,0.1491,0.1522,0.1523,0.1524,0,0.0391,0.0516,0.0705,0.0866,0.0899,0.0974,0.1211,0.1334,0.1594,0.17,0.1872,0.1944,0.2097,0.1965,0.1965,0.1936,0.1796,0.1718,0.171,0.1642,0.1481,0.1377,0.1503,0.1198,0.1535,0.1534,0.1533,0,0.0539,0.0703,0.0884,0.0942,0.1101,0.1168,0.1228,0.1435,0.1607,0.1868,0.2015,0.2152,0.2256,0.2132,0.2029,0.1968,0.1941,0.183,0.1664,0.1656,0.1585,0.1567,0.14,0.1774,0.1774,0.1774,0.1774,0,0.0742,0.0896,0.0976,0.1105,0.129,0.1274,0.1496,0.1608,0.1807,0.2047,0.2141,0.2356,0.2287,0.2292,0.2097,0.1949,0.199,0.1744,0.1668,0.1638,0.1627,0.1319,0.1178,0.1771,0.1772,0.1772,0.1773,0,0.0968,0.1034,0.1234,0.1355,0.1401,0.1509,0.1633,0.1809,0.1946,0.2258,0.2341,0.2542,0.2549,0.243,0.2268,0.2077,0.1759,0.1793,0.1762,0.1687,0.1262,0.1133,0.1073,0.0946,0.1625,0.1625,0.1624,0,0.1151,0.1285,0.1407,0.1488,0.1553,0.17,0.1815,0.192,0.2103,0.2393,0.2561,0.2681,0.2832,0.261,0.2282,0.1958,0.1729,0.1687,0.161,0.1293,0.109,0.1093,0.0989,0.1547,0.1546,0.1545,0.1545,0,0.1463,0.1443,0.155,0.17,0.1811,0.199,0.2136,0.2301,0.2449,0.2671,0.2926,0.3044,0.2898,0.264,0.2221,0.1987,0.1529,0.1656,0.1344,0.1072,0.1053,0.0872,0.1504,0.1536,0.1537,0.1537,0.1538,0.1538,0.1618,0.1703,0.1751,0.1893,0.2011,0.2214,0.2368,0.2526,0.2776,0.3045,0.3135,0.3261,0.2914,0.2387,0.2013,0.1327,0.1421,0.1104,0.0986,0.1028,0.09,0.1521,0.1459,0.146,0.146,0.146,0.1461,0,0.1812,0.1839,0.1952,0.2082,0.2203,0.2265,0.2544,0.2688,0.2942,0.3138,0.331,0.3174,0.2635,0.2077,0.1218,0.0719,0.0592,0.0473,0.0414,0.0342,0.0879,0.0862,0.0651,0.0651,0.0651,0.0652,0.0652,0.0652,0.189,0.1996,0.2029,0.2224,0.2313,0.2535,0.2696,0.291,0.3074,0.3253,0.3278,0.3352,0.2945,0.1488,0.0436,0.0156,-0.0242,-0.0226,-0.041,-0.0157,-0.0109,-0.0064,-0.0116,-0.0529,-0.053,-0.088,-0.0885,-0.0889]}],[{"header":{"parameterUnit":"m.s-1","parameterCategory":2,"la1":30.2991,"la2":30.254,"lo1":-89.0895,"lo2":-89.0444,"dy":0.0017,"dx":0.0017,"nx":28,"ny":28,"refTime":"2025-07-13T03:00:00:Z","depth":"2","parameterNumber":2,"parameterNumberName":"U-component_of_CURRENTS"},"data":[0,0,0,0,0,0,0,0,0,0,0,0,0,0,0,0,0,0,0,0,0,0,0,0,0,0,0,0,0,0,0,0,0,0,0,0,0,0,0,0,0,0,0,0,0,0,0,0,0,0,0,0,0,0,0,0,0,0,0.0804,0.0804,0,0.0774,0.0774,0.0773,0.0752,0.0752,0.0752,0.0752,0.0655,0.0653,0.065,0,0,0,0,0,0,0,0,0,0,0,0,0,0.0802,0.0802,0.0804,0.0804,0.0804,0.0774,0.0774,0.0773,0.0752,0.0752,0.0752,0.0752,0.0656,0.0653,0.065,0,0,0,0,0,0,0,0,0,0,0,0,0,0.0789,0.0802,0.0804,0.0791,0.079,0.0775,0.0774,0.0773,0.0752,0.0752,0.0752,0.0752,0.0657,0.0653,0.0649,0.0625,0,0,0.0638,0.0636,0,0,0,0,0,0,0,0,0.0789,0.0788,0.0793,0.0792,0.079,0.0769,0.0738,0.0721,0.0752,0.0764,0.0752,0.0752,0.0688,0.0682,0.0674,0.0621,0.0617,0.0637,0.0635,0.0633,0.0632,0,0,0,0,0,0,0,0.079,0.0789,0.079,0.0793,0.0791,0.0773,0.0771,0.0734,0.0724,0.0763,0.0762,0.0762,0.0687,0.0678,0.0672,0.0615,0.0637,0.0634,0.0632,0.063,0.0614,0.0616,0,0,0,0,0,0,0.08,0.0791,0.0791,0.079,0.0792,0.0773,0.0771,0.0774,0.0725,0.0719,0.0762,0.0761,0.0685,0.0676,0.0668,0.0701,0.0633,0.063,0.0627,0.0612,0.0614,0.0616,0,0,0,0,0,0,0.08,0.0801,0.0792,0.0791,0.0789,0.0774,0.0777,0.0773,0.0764,0.0726,0.0718,0.0756,0.0684,0.0673,0.0642,0.0694,0.0628,0.0624,0.061,0.0613,0.0615,0.0725,0,0,0,0,0,0,0.0801,0.0801,0.0802,0.0792,0.0789,0.0785,0.0777,0.0773,0.0765,0.0763,0.0718,0.0709,0.0683,0.0648,0.0638,0.0688,0.0621,0.0607,0.0611,0.0615,0.0719,0.0731,0.0742,0,0,0,0,0,0.0801,0.0804,0.0803,0.0803,0.0793,0.0786,0.0782,0.077,0.0765,0.0761,0.0735,0.071,0.0665,0.0645,0.0633,0.0684,0.0606,0.061,0.0614,0.0714,0.0729,0.0742,0,0,0,0,0,0,0.0801,0.0802,0.08,0.0803,0.0797,0.0783,0.078,0.077,0.0747,0.0747,0.0708,0.0697,0.0695,0.0668,0.0647,0.0693,0.0642,0.0644,0.0722,0.0735,0.0747,0.0737,0.0618,0,0,0,0,0,0.0804,0.0809,0.0803,0.0806,0.0805,0.0792,0.0787,0.0781,0.0762,0.0753,0.0724,0.0708,0.0705,0.07,0.0677,0.0684,0.0677,0.0718,0.0729,0.0739,0.0725,0.0757,0.077,0.063,0.063,0.063,0,0,0.0806,0.0807,0.081,0.0807,0.0802,0.0815,0.0788,0.0786,0.0802,0.0744,0.0747,0.0728,0.071,0.0729,0.073,0.0713,0.0786,0.0745,0.0753,0.0733,0.0763,0.0776,0.0788,0.0633,0.0633,0.0632,0,0,0.0823,0.0814,0.083,0.0832,0.0831,0.0825,0.0826,0.0815,0.0813,0.0809,0.0793,0.0798,0.0775,0.079,0.0794,0.0849,0.0835,0.0859,0.0918,0.0951,0.0962,0.0972,0.1027,0.1041,0.0879,0.0879,0.0879,0,0.0826,0.0844,0.0831,0.0853,0.0857,0.0835,0.0855,0.0856,0.0837,0.0839,0.0823,0.0827,0.0811,0.0859,0.0891,0.0876,0.0893,0.087,0.0966,0.0975,0.0983,0.1037,0.105,0.0885,0.0884,0.0883,0.0883,0,0.0865,0.0876,0.0884,0.0908,0.0911,0.0918,0.0924,0.0929,0.0922,0.0919,0.0939,0.0925,0.0936,0.0954,0.0937,0.1006,0.1002,0.0968,0.0931,0.1004,0.1056,0.1069,0.0893,0.0891,0.0889,0.0888,0,0,0.0878,0.0904,0.0909,0.0921,0.0937,0.094,0.0979,0.0993,0.1034,0.1012,0.1074,0.1063,0.1054,0.1057,0.1057,0.1085,0.1182,0.1059,0.1059,0.1115,0.1278,0.127,0.1283,0.1167,0.1169,0.117,0.1308,0,0.0908,0.0949,0.0958,0.0992,0.1008,0.1011,0.1058,0.1074,0.109,0.1147,0.1138,0.119,0.11,0.115,0.1152,0.1184,0.1211,0.1148,0.1196,0.1198,0.1182,0.1295,0.1196,0.1308,0.1319,0.1321,0.1323,0,0.0949,0.0963,0.1005,0.1036,0.1046,0.1072,0.1132,0.1179,0.1249,0.127,0.1294,0.1307,0.1364,0.1291,0.1324,0.1291,0.128,0.1282,0.1287,0.1238,0.1211,0.1227,0.1329,0.1342,0.1341,0.1339,0.1338,0,0.0962,0.0995,0.1021,0.1032,0.1076,0.1101,0.1139,0.1209,0.1242,0.1379,0.1412,0.1466,0.1518,0.1503,0.1455,0.1429,0.1486,0.1464,0.1435,0.1435,0.1335,0.1323,0.1471,0.147,0.147,0.147,0.1469,0,0.0988,0.1007,0.1027,0.1041,0.1081,0.1128,0.1189,0.1255,0.1348,0.1395,0.1473,0.1507,0.1566,0.1582,0.1535,0.1518,0.1543,0.1465,0.1474,0.1376,0.1367,0.1359,0.1344,0.1475,0.1474,0.1473,0.1472,0,0.0995,0.1022,0.1037,0.1071,0.1088,0.1123,0.1176,0.1223,0.1328,0.1412,0.1465,0.1571,0.1635,0.164,0.1682,0.1628,0.1626,0.1588,0.1484,0.1477,0.1551,0.154,0.1666,0.1667,0.1667,0.1668,0.1669,0,0.0987,0.1002,0.1033,0.1042,0.105,0.1092,0.1126,0.1214,0.1249,0.1398,0.1429,0.1565,0.1623,0.1697,0.1685,0.1695,0.1627,0.1588,0.1513,0.1577,0.1573,0.1561,0.1549,0.145,0.1448,0.1447,0.1447,0,0.0938,0.0962,0.0967,0.1001,0.1018,0.1041,0.1087,0.1109,0.123,0.1307,0.1432,0.1532,0.1635,0.1666,0.1688,0.1632,0.1604,0.1571,0.1676,0.1404,0.1381,0.1374,0.1369,0.1437,0.1438,0.1439,0.1439,0.144,0.087,0.087,0.0894,0.0928,0.0957,0.1001,0.1022,0.1071,0.1154,0.1287,0.1389,0.15,0.1565,0.1597,0.1541,0.1503,0.1587,0.1519,0.1519,0.1521,0.146,0.1438,0.1496,0.1497,0.1498,0.1499,0.15,0,0.0769,0.0804,0.0819,0.0865,0.089,0.0946,0.0999,0.1021,0.1112,0.1241,0.1374,0.1325,0.1395,0.1406,0.1373,0.1399,0.1338,0.1323,0.1243,0.1255,0.1265,0.1185,0.1152,0.115,0.1149,0.1148,0,0,0.0707,0.071,0.0747,0.0784,0.0839,0.0887,0.0928,0.098,0.1059,0.1123,0.1187,0.1365,0.1417,0.1281,0.1272,0.1224,0.1217,0.1169,0.1455,0.1376,0.1384,0.1394,0.1289,0,0,0,0,0]},{"header":{"parameterUnit":"m.s-1","parameterCategory":2,"la1":30.2991,"la2":30.254,"lo1":-89.0895,"lo2":-89.0444,"dy":0.0017,"dx":0.0017,"nx":28,"ny":28,"refTime":"2025-07-13T03:00:00:Z","depth":"2","parameterNumber":3,"parameterNumberName":"V-component_of_CURRENTS"},"data":[0,0,0,0,0,0,0,0,0,0,0,0,0,0,0,0,0,0,0,0,0,0,0,0,0,0,0,0,0,0,0,0,0,0,0,0,0,0,0,0,0,0,0,0,0,0,0,0,0,0,0,0,0,0,0,0,0,0,-0.0979,-0.0979,0,-0.0951,-0.0951,-0.095,-0.095,-0.0951,-0.0951,-0.0951,-0.086,-0.0857,-0.0854,0,0,0,0,0,0,0,0,0,0,0,0,0,-0.1008,-0.1007,-0.0979,-0.0979,-0.0978,-0.0951,-0.095,-0.095,-0.095,-0.0951,-0.0951,-0.0952,-0.0861,-0.0857,-0.0854,0,0,0,0,0,0,0,0,0,0,0,0,0,-0.0988,-0.1007,-0.0979,-0.0976,-0.0975,-0.0951,-0.095,-0.095,-0.095,-0.0951,-0.0951,-0.0952,-0.0862,-0.0858,-0.0853,-0.0814,0,0,-0.084,-0.0838,0,0,0,0,0,0,0,0,-0.0989,-0.0987,-0.0976,-0.0976,-0.0975,-0.0955,-0.0927,-0.0901,-0.095,-0.0959,-0.0951,-0.0952,-0.0886,-0.088,-0.0873,-0.0809,-0.0805,-0.084,-0.0837,-0.0835,-0.0834,0,0,0,0,0,0,0,-0.0991,-0.0988,-0.0967,-0.0976,-0.0975,-0.0967,-0.0965,-0.0922,-0.0917,-0.0958,-0.0958,-0.0956,-0.0885,-0.0877,-0.087,-0.0804,-0.084,-0.0836,-0.0834,-0.0832,-0.0707,-0.0706,0,0,0,0,0,0,-0.0996,-0.0989,-0.0968,-0.0966,-0.0985,-0.0966,-0.0964,-0.096,-0.0919,-0.0914,-0.0956,-0.0956,-0.0884,-0.0875,-0.0867,-0.0824,-0.0835,-0.0831,-0.0829,-0.0707,-0.0706,-0.0706,0,0,0,0,0,0,-0.0997,-0.0994,-0.0969,-0.0978,-0.0974,-0.0965,-0.0961,-0.096,-0.0956,-0.0918,-0.0912,-0.0954,-0.0884,-0.0873,-0.0834,-0.082,-0.083,-0.0826,-0.0708,-0.0707,-0.0706,-0.0733,0,0,0,0,0,0,-0.0998,-0.0995,-0.0993,-0.0978,-0.0974,-0.095,-0.096,-0.0959,-0.0953,-0.0954,-0.0914,-0.0906,-0.0884,-0.084,-0.0829,-0.0814,-0.0822,-0.0709,-0.0708,-0.0706,-0.0733,-0.0733,-0.0733,0,0,0,0,0,-0.0999,-0.0986,-0.0993,-0.0991,-0.0972,-0.0949,-0.0945,-0.0941,-0.0953,-0.0942,-0.0924,-0.0908,-0.0823,-0.0836,-0.0824,-0.0807,-0.071,-0.0708,-0.0707,-0.0733,-0.0733,-0.0733,0,0,0,0,0,0,-0.0988,-0.0985,-0.0992,-0.0977,-0.0966,-0.0949,-0.0939,-0.0942,-0.092,-0.0923,-0.0896,-0.0886,-0.085,-0.082,-0.0835,-0.0766,-0.0764,-0.0759,-0.0788,-0.0787,-0.0787,-0.0803,-0.0819,0,0,0,0,0,-0.0988,-0.0983,-0.0976,-0.0963,-0.0959,-0.0953,-0.0945,-0.0943,-0.0924,-0.0917,-0.0891,-0.0861,-0.083,-0.0805,-0.0773,-0.0728,-0.074,-0.0708,-0.0708,-0.0708,-0.0712,-0.0736,-0.074,-0.07,-0.07,-0.07,0,0,-0.0979,-0.0977,-0.0974,-0.0961,-0.0954,-0.0935,-0.0949,-0.0934,-0.0919,-0.0907,-0.0874,-0.086,-0.082,-0.0781,-0.076,-0.0754,-0.0725,-0.0706,-0.0707,-0.071,-0.0735,-0.0739,-0.0743,-0.0699,-0.0699,-0.0699,0,0,-0.0953,-0.0959,-0.0947,-0.0936,-0.0928,-0.0922,-0.092,-0.0906,-0.0903,-0.0872,-0.0868,-0.0853,-0.0788,-0.0772,-0.0752,-0.0727,-0.073,-0.0706,-0.0709,-0.0733,-0.0737,-0.0741,-0.0768,-0.0775,-0.0699,-0.0699,-0.0699,0,-0.094,-0.0932,-0.0936,-0.0918,-0.0909,-0.0917,-0.0897,-0.0886,-0.0862,-0.086,-0.0861,-0.0814,-0.0786,-0.0756,-0.0751,-0.0728,-0.0745,-0.0717,-0.0736,-0.074,-0.0744,-0.0771,-0.0777,-0.07,-0.07,-0.07,-0.07,0,-0.0903,-0.09,-0.0888,-0.0874,-0.086,-0.0845,-0.0836,-0.0824,-0.0828,-0.0828,-0.0812,-0.0794,-0.0763,-0.0756,-0.0743,-0.0745,-0.0751,-0.0744,-0.0746,-0.075,-0.0777,-0.0784,-0.0701,-0.0701,-0.0701,-0.07,0,0,-0.0861,-0.0866,-0.086,-0.0863,-0.0843,-0.0829,-0.0801,-0.079,-0.0765,-0.0778,-0.075,-0.0748,-0.0759,-0.0738,-0.073,-0.0757,-0.0802,-0.0761,-0.0762,-0.0804,-0.0863,-0.0827,-0.0831,-0.0805,-0.0806,-0.0807,-0.0875,0,-0.0833,-0.0818,-0.0814,-0.0791,-0.0788,-0.0782,-0.0725,-0.0716,-0.0719,-0.0687,-0.0722,-0.0672,-0.0742,-0.07,-0.0761,-0.0764,-0.0819,-0.0784,-0.0838,-0.084,-0.082,-0.0836,-0.0765,-0.0816,-0.0882,-0.0883,-0.0884,0,-0.0793,-0.0799,-0.0787,-0.0759,-0.0746,-0.0726,-0.068,-0.0617,-0.0587,-0.058,-0.0607,-0.0605,-0.0631,-0.0671,-0.0781,-0.0755,-0.0823,-0.0861,-0.0864,-0.0826,-0.0815,-0.0818,-0.0826,-0.0894,-0.0893,-0.0893,-0.0892,0,-0.0784,-0.0772,-0.0777,-0.0772,-0.073,-0.0718,-0.0659,-0.0606,-0.0561,-0.0497,-0.0467,-0.0524,-0.0501,-0.0623,-0.074,-0.0741,-0.087,-0.0865,-0.092,-0.0918,-0.0864,-0.0855,-0.0971,-0.0971,-0.0971,-0.097,-0.097,0,-0.0763,-0.0762,-0.0787,-0.0789,-0.0752,-0.0691,-0.0638,-0.0565,-0.0485,-0.0421,-0.0401,-0.0391,-0.0489,-0.0579,-0.0715,-0.0847,-0.0863,-0.093,-0.0934,-0.0869,-0.086,-0.0927,-0.0921,-0.0973,-0.0972,-0.0972,-0.0972,0,-0.0759,-0.0771,-0.0776,-0.0763,-0.076,-0.0712,-0.0644,-0.0576,-0.0465,-0.0381,-0.0338,-0.0304,-0.0366,-0.0514,-0.0665,-0.0774,-0.0908,-0.0964,-0.0882,-0.0875,-0.0947,-0.0941,-0.0993,-0.0992,-0.0992,-0.0991,-0.0991,0,-0.0768,-0.078,-0.0783,-0.0771,-0.0783,-0.0741,-0.0676,-0.0582,-0.0517,-0.0358,-0.0302,-0.0292,-0.0294,-0.0489,-0.064,-0.0829,-0.0922,-0.0894,-0.0876,-0.095,-0.095,-0.0945,-0.094,-0.0825,-0.0823,-0.0821,-0.082,0,-0.0784,-0.0782,-0.0774,-0.0757,-0.0741,-0.0706,-0.0626,-0.0587,-0.0419,-0.0322,-0.0177,-0.0139,-0.0257,-0.0359,-0.0579,-0.0719,-0.0843,-0.0867,-0.0972,-0.0818,-0.0793,-0.0792,-0.0793,-0.0807,-0.0809,-0.081,-0.081,-0.0811,-0.0786,-0.0768,-0.0742,-0.0714,-0.0681,-0.0599,-0.0521,-0.0433,-0.0282,-0.0046,-0.0086,0.0043,-0.0129,-0.0308,-0.0525,-0.0715,-0.0744,-0.0811,-0.0815,-0.0821,-0.0777,-0.0751,-0.0751,-0.0751,-0.0752,-0.0753,-0.0754,0,-0.0771,-0.0719,-0.069,-0.0619,-0.054,-0.0543,-0.0415,-0.0299,-0.0086,0.0057,0.0199,0.013,0.0016,-0.0212,-0.0443,-0.0612,-0.063,-0.0689,-0.0676,-0.0687,-0.0698,-0.0647,-0.0587,-0.0587,-0.0587,-0.0587,0,0,-0.0736,-0.0668,-0.063,-0.0487,-0.0428,-0.0276,-0.0171,-0.0015,0.0117,0.0303,0.0396,0.0418,0.0126,-0.0011,-0.0269,-0.0416,-0.0506,-0.0443,-0.0556,-0.052,-0.0527,-0.0748,-0.068,0,0,0,0,0]}],[{"header":{"parameterUnit":"m.s-1","parameterCategory":2,"la1":30.2991,"la2":30.254,"lo1":-89.0895,"lo2":-89.0444,"dy":0.0017,"dx":0.0017,"nx":28,"ny":28,"refTime":"2025-07-13T03:00:00:Z","depth":"4","parameterNumber":2,"parameterNumberName":"U-component_of_CURRENTS"},"data":[0,0,0,0,0,0,0,0,0,0,0,0,0,0,0,0,0,0,0,0,0,0,0,0,0,0,0,0,0,0,0,0,0,0,0,0,0,0,0,0,0,0,0,0,0,0,0,0,0,0,0,0,0,0,0,0,0,0,0.044,0.0441,0,0.0502,0.0503,0.0504,0.0555,0.0555,0.0556,0.0556,0.0631,0.0632,0.0634,0,0,0,0,0,0,0,0,0,0,0,0,0,0.0379,0.038,0.044,0.0441,0.0442,0.0502,0.0503,0.0504,0.0555,0.0555,0.0556,0.0556,0.063,0.0632,0.0634,0,0,0,0,0,0,0,0,0,0,0,0,0,0.042,0.038,0.044,0.0474,0.0478,0.0502,0.0503,0.0504,0.0554,0.0555,0.0556,0.0557,0.0629,0.0632,0.0634,0.0633,0,0,0.0641,0.0642,0,0,0,0,0,0,0,0,0.0418,0.0423,0.0468,0.0472,0.0476,0.0521,0.0509,0.0548,0.0554,0.0526,0.0556,0.0557,0.0594,0.06,0.061,0.0637,0.064,0.0641,0.0642,0.0643,0.0644,0,0,0,0,0,0,0,0.0415,0.042,0.0465,0.0469,0.0474,0.0491,0.0497,0.0517,0.0556,0.0528,0.0532,0.0538,0.0597,0.0608,0.0612,0.0641,0.0641,0.0643,0.0644,0.0645,0.07,0.07,0,0,0,0,0,0,0.0405,0.0417,0.0463,0.0467,0.0448,0.0491,0.0499,0.0506,0.0555,0.0563,0.0537,0.054,0.0603,0.0609,0.0615,0.0664,0.0643,0.0646,0.0647,0.07,0.07,0.07,0,0,0,0,0,0,0.0404,0.0409,0.0461,0.0443,0.0451,0.0491,0.05,0.0507,0.0539,0.0562,0.0571,0.0564,0.0604,0.0612,0.0642,0.0665,0.0647,0.0649,0.07,0.07,0.07,0.0731,0,0,0,0,0,0,0.0402,0.0408,0.0415,0.0443,0.0452,0.0484,0.0499,0.0508,0.054,0.0545,0.0587,0.0593,0.0605,0.0638,0.0644,0.0668,0.065,0.07,0.07,0.07,0.073,0.0732,0.0734,0,0,0,0,0,0.0399,0.0403,0.0415,0.0421,0.0459,0.0484,0.0491,0.0522,0.054,0.0554,0.058,0.0593,0.0643,0.064,0.0647,0.0672,0.07,0.07,0.07,0.0729,0.0731,0.0734,0,0,0,0,0,0,0.0379,0.041,0.0423,0.0436,0.0462,0.0493,0.0511,0.0531,0.0563,0.0577,0.0597,0.0605,0.0636,0.0645,0.0641,0.0685,0.0673,0.0674,0.0692,0.0695,0.0697,0.0717,0.0652,0,0,0,0,0,0.0377,0.0391,0.0421,0.0433,0.045,0.0484,0.0502,0.0526,0.0554,0.0571,0.0601,0.0626,0.0638,0.066,0.0672,0.0703,0.0718,0.0721,0.0723,0.0725,0.0743,0.0779,0.0787,0.0701,0.0701,0.0701,0,0,0.0369,0.0391,0.0397,0.043,0.0458,0.0484,0.0498,0.0534,0.0559,0.0572,0.0624,0.0635,0.0644,0.0674,0.0689,0.069,0.0753,0.0725,0.0727,0.0745,0.078,0.0789,0.0797,0.0701,0.0701,0.0701,0,0,0.0366,0.0387,0.0403,0.043,0.0475,0.0494,0.0508,0.0555,0.0582,0.0619,0.0631,0.0656,0.069,0.0703,0.071,0.073,0.0756,0.0737,0.078,0.0814,0.0822,0.0829,0.0848,0.0857,0.0748,0.0748,0.0748,0,0.0358,0.0384,0.041,0.0441,0.0469,0.0501,0.0532,0.0557,0.0608,0.0642,0.064,0.0702,0.0702,0.0742,0.0745,0.0738,0.0763,0.0771,0.0819,0.0827,0.0834,0.0852,0.0861,0.0749,0.0749,0.0749,0.0749,0,0.0371,0.04,0.0416,0.0464,0.0495,0.0526,0.0566,0.0608,0.0643,0.0676,0.0733,0.0738,0.078,0.0777,0.0768,0.0821,0.0822,0.0811,0.0818,0.0845,0.0861,0.087,0.0752,0.0751,0.0751,0.075,0,0,0.0331,0.0408,0.0415,0.0449,0.0514,0.0539,0.0594,0.0653,0.0703,0.0747,0.0809,0.0822,0.0847,0.0855,0.0853,0.0883,0.0931,0.0878,0.088,0.0907,0.1013,0.0942,0.0945,0.0943,0.0945,0.0946,0.1001,0,0.0335,0.039,0.0433,0.0487,0.052,0.0582,0.0629,0.0692,0.0745,0.081,0.0839,0.0879,0.0868,0.0889,0.0922,0.0924,0.096,0.0917,0.0976,0.0977,0.0919,0.0955,0.0953,0.1008,0.101,0.1012,0.1013,0,0.0328,0.0374,0.0423,0.0515,0.0538,0.0576,0.0677,0.0725,0.0821,0.0868,0.0937,0.0957,0.1003,0.0978,0.104,0.1022,0.103,0.1031,0.1033,0.0968,0.0924,0.0977,0.103,0.1028,0.1027,0.1026,0.1025,0,0.0271,0.0364,0.0401,0.0431,0.0533,0.0582,0.0645,0.0749,0.0807,0.0905,0.0962,0.1024,0.1056,0.1087,0.1084,0.1078,0.1142,0.1126,0.1076,0.107,0.1106,0.1097,0.1183,0.1183,0.1183,0.1183,0.1183,0,0.0246,0.028,0.0382,0.0399,0.0469,0.056,0.0643,0.072,0.0836,0.0906,0.0986,0.1032,0.1091,0.1126,0.112,0.1123,0.1173,0.1099,0.1088,0.1113,0.1105,0.1111,0.1102,0.1185,0.1184,0.1184,0.1184,0,0.0168,0.0232,0.0268,0.0382,0.0433,0.0475,0.0631,0.0694,0.0819,0.0914,0.0944,0.1055,0.1102,0.1144,0.1181,0.1161,0.116,0.1147,0.1169,0.1156,0.1061,0.1053,0.1116,0.1114,0.1113,0.1112,0.111,0,0.0139,0.0142,0.0229,0.0263,0.0317,0.0418,0.0496,0.0652,0.073,0.0903,0.0937,0.1032,0.1088,0.1096,0.1133,0.1147,0.1132,0.1137,0.111,0.1075,0.1059,0.1053,0.1047,0.1108,0.1108,0.1107,0.1107,0,0.0066,0.0071,0.0102,0.0174,0.0246,0.034,0.0471,0.0525,0.0706,0.0821,0.0911,0.0959,0.1023,0.1047,0.1075,0.1072,0.1135,0.1121,0.1124,0.1098,0.1066,0.105,0.1046,0.1101,0.1102,0.1102,0.1103,0,-0.0004,-0.0012,0.0022,0.0096,0.0171,0.0261,0.0339,0.0469,0.0573,0.0789,0.079,0.0902,0.0989,0.1007,0.1011,0.1026,0.1023,0.0999,0.1009,0.1016,0.0958,0.0901,0.0892,0,0,0,0,0,-0.0053,-0.0054,-0.0026,0.0054,0.0123,0.0196,0.0334,0.0424,0.0596,0.0638,0.0733,0.0783,0.0849,0.0887,0.0887,0.0963,0.1013,0.0959,0.0985,0.1071,0.1077,0.1019,0,0,0,0,0,0,-0.0085,-0.0087,-0.0057,0.0015,0.0075,0.0177,0.0259,0.0376,0.0425,0.058,0.0608,0.0733,0.0787,0.0835,0.0866,0.0884,0.0887,0.1031,0.1029,0.1067,0.1073,0.1078,0.1021,0,0,0,0,0]},{"header":{"parameterUnit":"m.s-1","parameterCategory":2,"la1":30.2991,"la2":30.254,"lo1":-89.0895,"lo2":-89.0444,"dy":0.0017,"dx":0.0017,"nx":28,"ny":28,"refTime":"2025-07-13T03:00:00:Z","depth":"4","parameterNumber":3,"parameterNumberName":"V-component_of_CURRENTS"},"data":[0,0,0,0,0,0,0,0,0,0,0,0,0,0,0,0,0,0,0,0,0,0,0,0,0,0,0,0,0,0,0,0,0,0,0,0,0,0,0,0,0,0,0,0,0,0,0,0,0,0,0,0,0,0,0,0,0,0,0.0041,0.004,0,-0.0038,-0.0039,-0.004,-0.0123,-0.0124,-0.0125,-0.0126,-0.0246,-0.0248,-0.0251,0,0,0,0,0,0,0,0,0,0,0,0,0,0.0031,0.0032,0.0041,0.004,0.0039,-0.0038,-0.0039,-0.004,-0.0123,-0.0124,-0.0125,-0.0126,-0.0245,-0.0248,-0.0251,0,0,0,0,0,0,0,0,0,0,0,0,0,-0.0001,0.0032,0.0041,-0.0009,-0.0014,-0.0037,-0.0039,-0.0041,-0.0123,-0.0124,-0.0125,-0.0127,-0.0244,-0.0248,-0.0251,-0.0247,0,0,-0.0262,-0.0264,0,0,0,0,0,0,0,0,0.0001,-0.0001,-0.0001,-0.0006,-0.0011,-0.0069,-0.0087,-0.0111,-0.0122,-0.0084,-0.0126,-0.0127,-0.0188,-0.0196,-0.0212,-0.0253,-0.0258,-0.0263,-0.0265,-0.0266,-0.0267,0,0,0,0,0,0,0,0.0004,0.0002,0.0006,-0.0002,-0.0008,-0.0058,-0.0063,-0.0092,-0.0131,-0.0088,-0.0093,-0.0097,-0.0192,-0.0208,-0.0215,-0.026,-0.0263,-0.0266,-0.0268,-0.0269,-0.0399,-0.04,0,0,0,0,0,0,0.0026,0.0005,0.0009,0.0004,-0.0005,-0.0056,-0.0062,-0.0052,-0.013,-0.0142,-0.0096,-0.01,-0.0201,-0.0211,-0.022,-0.0291,-0.0266,-0.027,-0.0272,-0.0397,-0.0399,-0.04,0,0,0,0,0,0,0.0026,0.0028,0.0012,0.0004,-0.0001,-0.0053,-0.0042,-0.0053,-0.0097,-0.0135,-0.0149,-0.0131,-0.0203,-0.0215,-0.027,-0.0294,-0.0271,-0.0275,-0.0396,-0.0398,-0.04,-0.0387,0,0,0,0,0,0,0.0027,0.0029,0.0028,0.0006,0.0,-0.0022,-0.0041,-0.0053,-0.0093,-0.0101,-0.0169,-0.018,-0.0205,-0.0265,-0.0274,-0.0298,-0.0277,-0.0394,-0.0397,-0.0399,-0.0386,-0.0389,-0.0391,0,0,0,0,0,0.0027,0.0032,0.0029,0.0028,0.0007,-0.0022,-0.0032,-0.0075,-0.0094,-0.0119,-0.0163,-0.0179,-0.0287,-0.0268,-0.0279,-0.0305,-0.0393,-0.0396,-0.0399,-0.0385,-0.0388,-0.0391,0,0,0,0,0,0,0.002,0.0024,0.002,0.0024,-0.0004,-0.0036,-0.0063,-0.0085,-0.0138,-0.0155,-0.019,-0.0205,-0.0269,-0.0286,-0.0265,-0.0351,-0.0345,-0.035,-0.0331,-0.0334,-0.0337,-0.0314,-0.028,0,0,0,0,0,0.0025,0.0032,0.0019,0.0017,0.0005,-0.0031,-0.0053,-0.0082,-0.0121,-0.0148,-0.0195,-0.0243,-0.0284,-0.0308,-0.0355,-0.0389,-0.0395,-0.0416,-0.0419,-0.042,-0.0411,-0.0443,-0.0446,-0.041,-0.041,-0.041,0,0,0.0023,0.0025,0.0027,0.0016,-0.0011,-0.0024,-0.005,-0.009,-0.0108,-0.015,-0.021,-0.0261,-0.0299,-0.035,-0.0379,-0.0368,-0.0434,-0.0424,-0.0425,-0.0414,-0.0446,-0.0449,-0.0452,-0.0412,-0.0411,-0.0411,0,0,0.0016,0.0021,0.0018,0.0002,-0.0031,-0.0044,-0.0057,-0.0105,-0.0139,-0.019,-0.0229,-0.0283,-0.0354,-0.0378,-0.0396,-0.0434,-0.0454,-0.0468,-0.045,-0.0482,-0.0484,-0.0486,-0.0491,-0.0494,-0.0458,-0.0458,-0.0458,0,0.0006,0.0018,0.0006,-0.0004,-0.0011,-0.0049,-0.0059,-0.0091,-0.0157,-0.0181,-0.0215,-0.0323,-0.0358,-0.0394,-0.0414,-0.0437,-0.0456,-0.0432,-0.0482,-0.0484,-0.0487,-0.0491,-0.0494,-0.0458,-0.0458,-0.0458,-0.0458,0,-0.0001,0.0005,-0.0003,-0.0009,-0.0024,-0.0042,-0.0068,-0.0108,-0.0151,-0.0186,-0.0264,-0.0322,-0.038,-0.0407,-0.042,-0.0462,-0.047,-0.0487,-0.0467,-0.0489,-0.0493,-0.0496,-0.0457,-0.0457,-0.0458,-0.0458,0,0,-0.0023,-0.0004,-0.0013,-0.0003,-0.0024,-0.0034,-0.0059,-0.0089,-0.0115,-0.0196,-0.0236,-0.031,-0.036,-0.0383,-0.0423,-0.0446,-0.0477,-0.0475,-0.0477,-0.0463,-0.0539,-0.0477,-0.0475,-0.0514,-0.0515,-0.0516,-0.053,0,-0.0031,-0.0015,-0.0014,-0.0012,-0.0003,-0.0025,-0.004,-0.0076,-0.0127,-0.0183,-0.0245,-0.0315,-0.0344,-0.0392,-0.0417,-0.0478,-0.0488,-0.047,-0.0532,-0.0533,-0.0463,-0.0478,-0.0518,-0.0533,-0.0533,-0.0534,-0.0534,0,-0.0059,-0.0027,-0.0015,0.0014,0.001,-0.0004,-0.0027,-0.0052,-0.0119,-0.0165,-0.0234,-0.03,-0.0357,-0.0386,-0.0463,-0.046,-0.0492,-0.0524,-0.0526,-0.0472,-0.0478,-0.051,-0.0541,-0.054,-0.054,-0.0539,-0.0539,0,-0.0072,-0.004,-0.0018,-0.0012,0.0009,-0.0006,-0.0014,-0.0064,-0.008,-0.0173,-0.0198,-0.0292,-0.0338,-0.0409,-0.0459,-0.0486,-0.0525,-0.057,-0.0531,-0.0527,-0.0581,-0.0579,-0.0604,-0.0604,-0.0604,-0.0603,-0.0603,0,-0.0086,-0.0076,-0.0024,-0.0019,-0.0002,-0.0006,-0.0026,-0.0057,-0.0095,-0.01,-0.0199,-0.0208,-0.0351,-0.0386,-0.045,-0.0478,-0.0513,-0.052,-0.0528,-0.0576,-0.0573,-0.0583,-0.058,-0.0604,-0.0604,-0.0604,-0.0604,0,-0.0129,-0.0098,-0.0065,-0.0023,-0.0018,-0.0019,-0.0011,-0.0015,-0.0061,-0.0069,-0.0097,-0.016,-0.0215,-0.0305,-0.0404,-0.0442,-0.0495,-0.0484,-0.0492,-0.0501,-0.0487,-0.0484,-0.0489,-0.0487,-0.0486,-0.0484,-0.0483,0,-0.0147,-0.0135,-0.0072,-0.0041,-0.0032,-0.0019,-0.0005,-0.0021,-0.0007,-0.0011,0.0003,-0.0056,-0.0099,-0.0178,-0.0285,-0.0396,-0.0403,-0.0437,-0.0504,-0.0469,-0.0476,-0.0476,-0.0475,-0.048,-0.048,-0.048,-0.0479,0,-0.0157,-0.0146,-0.0095,-0.0037,-0.0011,0.0028,0.0051,0.0069,0.0073,0.0057,0.0079,0.0015,-0.002,-0.0137,-0.0203,-0.0281,-0.044,-0.0421,-0.0427,-0.049,-0.0458,-0.0467,-0.0468,-0.0473,-0.0474,-0.0475,-0.0475,0,-0.0155,-0.0123,-0.0057,-0.002,0.003,0.0064,0.0074,0.012,0.0128,0.0132,0.0158,0.0093,0.0042,-0.0068,-0.012,-0.0205,-0.026,-0.0319,-0.0332,-0.0339,-0.0296,-0.0233,-0.0176,0,0,0,0,0,-0.0146,-0.0106,-0.0042,0.0013,0.0061,0.006,0.0123,0.0139,0.016,0.0184,0.0165,0.0136,0.0034,-0.0005,-0.0083,-0.0112,-0.0282,-0.0207,-0.0359,-0.044,-0.0447,-0.0416,0,0,0,0,0,0,-0.012,-0.0058,-0.0032,0.0028,0.0042,0.0085,0.0108,0.0125,0.0145,0.0159,0.0112,0.0091,-0.0005,0.0056,-0.0102,-0.0123,-0.0232,-0.0255,-0.0257,-0.0437,-0.0443,-0.0448,-0.0419,0,0,0,0,0]}]]